FW1504 Weather Reports


Display with metric or nautical units.
time (UTC)temp
F
wind
direction
speed
MPH
gust
MPH
rain 1hr
in
rain 24hr
in
rain mn
in
humidity
%
barometer
mb
20260503183054 81 236 3.0 7.0 0.00 0.00 0.00 31 1016.0
20260503181534 81 207 2.0 8.0 0.00 0.00 0.00 37 1016.1
20260503180040 81 230 3.0 6.0 0.00 0.00 0.00 36 1016.5
20260503174529 80 217 2.0 5.0 0.00 0.00 0.00 38 1017.0
20260503173042 80 261 3.0 6.0 0.00 0.00 0.00 37 1017.0
20260503171527 79 233 1.0 6.0 0.00 0.00 0.00 43 1017.1
20260503100107 53 151 0.0 3.0 0.00 0.00 0.00 77 1017.8
20260503081546 56 360 1.0 3.0 0.00 0.00 0.00 71 1018.6
20260503071539 56 360 1.0 3.0 0.00 0.00 0.00 71 1019.3
20260503054535 58 106 0.0 3.0 0.00 0.00 0.00 68 1019.6
20260503053033 58 101 0.0 2.0 0.00 0.00 0.00 68 1019.7
20260503051523 59 101 0.0 1.0 0.00 0.00 0.00 68 1019.6
20260503050020 59 101 0.0 1.0 0.00 0.00 0.00 69 1019.6
20260503044519 60 360 0.0 2.0 0.00 0.00 0.00 66 1019.6
20260503043019 61 360 0.0 2.0 0.00 0.00 0.00 64 1019.6
20260503041519 61 360 0.0 2.0 0.00 0.00 0.00 61 1019.4
20260503040018 62 98 0.0 2.0 0.00 0.00 0.00 60 1019.5
20260503034534 62 95 0.0 2.0 0.00 0.00 0.00 58 1019.5
20260503033018 63 360 0.0 2.0 0.00 0.00 0.00 58 1019.4
20260503031520 64 360 0.0 2.0 0.00 0.00 0.00 57 1019.2
20260503030016 64 360 0.0 2.0 0.00 0.00 0.00 56 1019.0
20260503024516 65 360 0.0 2.0 0.00 0.00 0.00 55 1018.9
20260503023016 65 360 0.0 2.0 0.00 0.00 0.00 55 1018.9
20260503021515 65 360 0.0 3.0 0.00 0.00 0.00 54 1018.7
20260503020015 66 360 0.0 2.0 0.00 0.00 0.00 52 1018.5
20260503014517 67 360 0.0 2.0 0.00 0.00 0.00 51 1018.5
20260503013017 69 360 0.0 2.0 0.00 0.00 0.00 49 1018.2
20260503011513 70 360 0.0 3.0 0.00 0.00 0.00 48 1018.1
20260503010013 71 360 0.0 3.0 0.00 0.00 0.00 46 1018.1
20260503004512 71 360 0.0 2.0 0.00 0.00 0.00 44 1018.0
20260503003012 72 360 0.0 3.0 0.00 0.00 0.00 43 1018.1
20260503001512 72 360 1.0 5.0 0.00 0.00 0.00 43 1017.9
20260503000011 73 360 1.0 4.0 0.00 0.00 0.00 42 1017.9
20260502234510 73 360 1.0 4.0 0.00 0.00 0.00 42 1018.0
20260502233010 74 360 1.0 3.0 0.00 0.00 0.00 42 1018.0
20260502231515 74 360 1.0 5.0 0.00 0.00 0.00 42 1018.0
20260502230009 74 360 1.0 4.0 0.00 0.00 0.00 41 1018.1
20260502224505 74 360 0.0 2.0 0.00 0.00 0.00 41 1018.1
20260502223004 74 360 0.0 3.0 0.00 0.00 0.00 41 1018.2
20260502221502 74 360 1.0 5.0 0.00 0.00 0.00 42 1018.2
20260502220001 74 360 1.0 5.0 0.00 0.00 0.00 44 1018.3
20260502214558 73 360 1.0 3.0 0.00 0.00 0.00 42 1018.7
20260502213057 73 360 0.0 5.0 0.00 0.00 0.00 43 1018.8
20260502211557 73 360 1.0 4.0 0.00 0.00 0.00 41 1018.9
20260502210105 73 360 1.0 5.0 0.00 0.00 0.00 42 1019.2
20260502204553 73 360 1.0 5.0 0.00 0.00 0.00 42 1019.2
20260502203053 74 360 0.0 3.0 0.00 0.00 0.00 44 1019.5
20260502201559 74 360 1.0 9.0 0.00 0.00 0.00 43 1019.6
20260502200059 74 360 0.0 3.0 0.00 0.00 0.00 42 1019.5
20260502194550 74 360 0.0 3.0 0.00 0.00 0.00 44 1019.7
20260502193046 73 360 1.0 5.0 0.00 0.00 0.00 43 1019.7
20260502191545 73 360 0.0 3.0 0.00 0.00 0.00 45 1019.9
20260502190052 73 360 0.0 4.0 0.00 0.00 0.00 43 1020.0
20260502184554 73 360 1.0 5.0 0.00 0.00 0.00 47 1020.3